{"data":{"norad_id":59391,"epoch":"2026-09-21T21:06:54.210240Z","epoch_age_seconds":46380,"freshness":"FRESH","line1":"1 59391U 24062T   26264.87979410  .00002092  00000+0  73121-4 0  9996","line2":"2 59391  53.1614  63.3477 0001301  78.2836 281.8313 15.34365177139728","mean_motion":15.34365177,"eccentricity":0.0001301,"inclination_deg":53.1614,"raan_deg":63.3477,"arg_perigee_deg":78.2836,"mean_anomaly_deg":281.8313,"bstar":7.3121e-5,"rev_number":13972,"period_min":93.849887991821,"perigee_km":461.91673667819,"apogee_km":463.69675024024,"semimajor_km":6840.9437434592,"source":"CELESTRAK","updated_at":"2026-09-22T09:00:48.911397Z"}}